Terminal Aerodrome Forecast
Issued by NWS Salt Lake City, UT

Home | Current Version | Previous Version | Text Only | Print | Product List | Glossary On
Versions: 1 2 3 4 5 6 7 8 9 10 11 12 13 14 15 16 17 18 19 20 21 22 23 24 25 26 27 28 29 30 31 32 33 34 35 36
000
FTUS45 KSLC 021959 AAA
TAFCDC
TAF AMD
KCDC 021959Z 0220/0318 23010G16KT P6SM VCSH SCT070 BKN100
     FM030200 20010KT P6SM FEW070 BKN100
     FM030900 18008KT P6SM SCT100=

USA.gov is the U.S. government's official web portal to all federal, state and local government web resources and services.